EW4443 Weather Reports


time (UTC)temp
C
wind
direction
speed
KPH
gust
KPH
rain 1hr
cm
rain 24hr
cm
rain mn
cm
humidity
%
barometer
mb
20260508222811 37 293 3.2 14.5 0.00 0.00 0.00 12 1006.5
20260508222310 37 203 3.2 16.1 0.00 0.00 0.00 12 1006.5
20260508222042 37 203 3.2 16.1 0.00 0.00 0.00 12 1006.5
20260508221311 37 0 1.6 12.9 0.00 0.00 0.00 15 1006.9
20260508220810 37 113 1.6 12.9 0.00 0.00 0.00 15 1006.9
20260508220543 37 270 1.6 11.3 0.00 0.00 0.00 15 1006.9
20260508215811 37 248 1.6 11.3 0.00 0.00 0.00 13 1006.9
20260508215311 36 248 3.2 12.9 0.00 0.00 0.00 15 1007.3
20260508214811 36 338 3.2 12.9 0.00 0.00 0.00 15 1007.3
20260508214542 36 23 1.6 11.3 0.00 0.00 0.00 15 1007.6
20260508213811 36 248 1.6 9.7 0.00 0.00 0.00 15 1007.6
20260508213310 36 158 3.2 11.3 0.00 0.00 0.00 15 1007.6
20260508212809 36 180 3.2 17.7 0.00 0.00 0.00 15 1007.6
20260508212309 36 225 3.2 17.7 0.00 0.00 0.00 15 1007.6
20260508211810 36 338 1.6 11.3 0.00 0.00 0.00 17 1008.0
20260508211312 36 270 3.2 14.5 0.00 0.00 0.00 15 1008.3
20260508210811 36 248 3.2 14.5 0.00 0.00 0.00 15 1008.3
20260508210311 36 225 1.6 11.3 0.00 0.00 0.00 15 1008.3
20260508205810 36 270 1.6 9.7 0.00 0.00 0.00 15 1008.3
20260508205309 35 338 1.6 9.7 0.00 0.00 0.00 15 1008.3
20260508204810 35 225 1.6 9.7 0.00 0.00 0.00 15 1008.7
20260508204309 35 293 1.6 9.7 0.00 0.00 0.00 15 1008.7
20260508203809 35 225 1.6 9.7 0.00 0.00 0.00 15 1008.7
20260508203309 35 270 1.6 9.7 0.00 0.00 0.00 15 1008.7
20260508202810 35 0 1.6 8.0 0.00 0.00 0.00 15 1009.0
20260508202310 35 180 1.6 8.0 0.00 0.00 0.00 15 1008.7
20260508201810 35 180 0.0 11.3 0.00 0.00 0.00 17 1008.7
20260508201309 35 203 1.6 11.3 0.00 0.00 0.00 15 1008.7
20260508200809 35 225 1.6 8.0 0.00 0.00 0.00 15 1009.0
20260508200309 35 270 0.0 6.4 0.00 0.00 0.00 17 1009.0
20260508195809 35 68 0.0 8.0 0.00 0.00 0.00 17 1009.3
20260508195308 35 0 1.6 9.7 0.00 0.00 0.00 17 1009.3
20260508195040 34 270 1.6 9.7 0.00 0.00 0.00 17 1009.7
20260508194310 34 225 1.6 9.7 0.00 0.00 0.00 17 1009.3
20260508193810 34 270 1.6 9.7 0.00 0.00 0.00 17 1009.7
20260508193310 33 338 0.0 9.7 0.00 0.00 0.00 17 1009.7
20260508192809 33 225 1.6 9.7 0.00 0.00 0.00 17 1009.7
20260508192541 33 270 0.0 9.7 0.00 0.00 0.00 17 1010.0
20260508191813 33 225 0.0 4.8 0.00 0.00 0.00 17 1010.0
20260508191808 33 248 1.6 9.7 0.00 0.00 0.00 17 1010.0
20260508190808 33 158 0.0 4.8 0.00 0.00 0.00 15 1010.0
20260508190310 33 135 0.0 9.7 0.00 0.00 0.00 17 1010.0
20260508185809 33 225 1.6 9.7 0.00 0.00 0.00 17 1010.5
20260508185310 33 203 1.6 9.7 0.00 0.00 0.00 17 1010.0
20260508184809 33 203 1.6 9.7 0.00 0.00 0.00 19 1010.5
20260508184309 32 45 0.0 4.8 0.00 0.00 0.00 19 1010.0
20260508183809 32 113 0.0 6.4 0.00 0.00 0.00 19 1010.5
20260508183307 32 248 0.0 6.4 0.00 0.00 0.00 19 1010.5
20260508183039 32 23 0.0 8.0 0.00 0.00 0.00 17 1010.5
20260508182539 32 203 1.6 8.0 0.00 0.00 0.00 17 1010.5
20260508181808 32 270 0.0 6.4 0.00 0.00 0.00 19 1010.8
20260508181521 32 248 0.0 6.4 0.00 0.00 0.00 19 1010.8
20260508180751 32 248 1.6 6.4 0.00 0.00 0.00 19 1011.1
20260508180250 32 248 1.6 8.0 0.00 0.00 0.00 20 1010.8
20260508175751 31 68 1.6 8.0 0.00 0.00 0.00 19 1011.1
20260508175250 31 203 0.0 4.8 0.00 0.00 0.00 20 1011.1
20260508174749 31 180 0.0 6.4 0.00 0.00 0.00 19 1011.1
20260508174249 31 203 1.6 6.4 0.00 0.00 0.00 20 1011.1
20260508174019 31 203 0.0 4.8 0.00 0.00 0.00 20 1011.1
20260508173521 31 180 0.0 4.8 0.00 0.00 0.00 20 1011.5
20260508172750 31 113 0.0 6.4 0.00 0.00 0.00 20 1011.5
20260508172250 30 158 1.6 6.4 0.00 0.00 0.00 20 1011.1
20260508171750 30 203 1.6 6.4 0.00 0.00 0.00 22 1011.5
20260508171522 30 248 1.6 6.4 0.00 0.00 0.00 20 1011.5
20260508170750 30 180 0.0 6.4 0.00 0.00 0.00 22 1011.5
20260508170249 30 158 0.0 6.4 0.00 0.00 0.00 22 1011.5
20260508165749 30 68 0.0 9.7 0.00 0.00 0.00 22 1011.5
20260508165249 30 180 1.6 9.7 0.00 0.00 0.00 20 1011.5
20260508164749 30 270 1.6 8.0 0.00 0.00 0.00 22 1011.8
20260508164250 29 135 1.6 6.4 0.00 0.00 0.00 22 1011.8
20260508163750 29 158 0.0 4.8 0.00 0.00 0.00 22 1011.8
20260508163250 29 203 0.0 4.8 0.00 0.00 0.00 22 1011.8
20260508162750 29 68 1.6 6.4 0.00 0.00 0.00 22 1011.8
20260508162250 28 180 0.0 8.0 0.00 0.00 0.00 22 1011.8
20260508161749 28 270 1.6 8.0 0.00 0.00 0.00 24 1011.8
20260508161249 28 180 0.0 6.4 0.00 0.00 0.00 24 1011.8
20260508160746 28 180 1.6 6.4 0.00 0.00 0.00 24 1011.8
20260508160231 28 225 0.0 9.7 0.00 0.00 0.00 24 1011.8
20260508155730 28 180 1.6 9.7 0.00 0.00 0.00 24 1011.5
20260508155231 28 180 1.6 6.4 0.00 0.00 0.00 24 1011.8
20260508154731 27 113 0.0 6.4 0.00 0.00 0.00 25 1011.8
20260508154236 27 270 0.0 6.4 0.00 0.00 0.00 25 1011.5
20260508154232 27 68 0.0 3.2 0.00 0.00 0.00 25 1011.5
20260508153231 27 158 0.0 6.4 0.00 0.00 0.00 25 1011.8
20260508152730 26 158 0.0 1.6 0.00 0.00 0.00 25 1011.8
20260508152230 26 135 0.0 3.2 0.00 0.00 0.00 25 1011.8
20260508151730 26 180 0.0 4.8 0.00 0.00 0.00 25 1011.8
20260508151230 26 293 0.0 4.8 0.00 0.00 0.00 25 1011.8
20260508150731 26 0 0.0 3.2 0.00 0.00 0.00 27 1012.1
20260508150231 26 0 0.0 3.2 0.00 0.00 0.00 27 1011.8
20260508145731 25 45 0.0 1.6 0.00 0.00 0.00 27 1011.8
20260508145232 25 338 0.0 3.2 0.00 0.00 0.00 27 1011.8
20260508144731 24 68 0.0 3.2 0.00 0.00 0.00 27 1011.8
20260508144230 24 248 0.0 1.6 0.00 0.00 0.00 29 1011.8
20260508144003 23 225 0.0 3.2 0.00 0.00 0.00 29 1011.5
20260508143230 23 158 0.0 3.2 0.00 0.00 0.00 30 1011.8
20260508143001 23 113 0.0 3.2 0.00 0.00 0.00 30 1011.8
20260508142213 23 23 0.0 3.2 0.00 0.00 0.00 31 1011.5
20260508141712 22 90 0.0 3.2 0.00 0.00 0.00 31 1011.8
20260508141213 22 203 0.0 3.2 0.00 0.00 0.00 31 1011.5
20260508140715 22 270 0.0 3.2 0.00 0.00 0.00 30 1011.5
20260508140212 21 225 0.0 4.8 0.00 0.00 0.00 30 1011.5
20260508135706 21 23 0.0 4.8 0.00 0.00 0.00 32 1011.5
20260508135423 21 338 0.0 1.6 0.00 0.00 0.00 31 1011.1
20260508134653 21 135 0.0 1.6 0.00 0.00 0.00 31 1011.1
20260508134152 21 293 0.0 1.6 0.00 0.00 0.00 31 1011.1
20260508133652 20 248 0.0 1.6 0.00 0.00 0.00 32 1011.1
20260508133141 20 248 0.0 1.6 0.00 0.00 0.00 32 1011.1
20260508132650 20 338 0.0 0.0 0.00 0.00 0.00 31 1010.8
20260508132014 20 270 0.0 1.6 0.00 0.00 0.00 32 1011.1
20260508131507 20 45 0.0 4.8 0.00 0.00 0.00 32 1010.8
20260508131200 20 270 0.0 4.8 0.00 0.00 0.00 32 1010.5
20260508130405 20 203 0.0 1.6 0.00 0.00 0.00 32 1010.8
20260508125834 20 315 0.0 1.6 0.00 0.00 0.00 32 1010.8
20260508125212 20 23 0.0 0.0 0.00 0.00 0.00 32 1010.5
20260508124648 -17 270 0.0 1.6 0.00 0.00 0.00 1010.5
20260508124355 20 45 0.0 1.6 0.00 0.00 0.00 31 1010.5
20260508123319 20 338 0.0 1.6 0.00 0.00 0.00 32 1010.5
20260508122819 20 0 0.0 3.2 0.00 0.00 0.00 32 1010.5
20260508122130 20 248 0.0 4.8 0.00 0.00 0.00 32 1010.5
20260508122035 20 23 0.0 1.6 0.00 0.00 0.00 32 1010.0
20260508121020 20 293 0.0 0.0 0.00 0.00 0.00 32 1010.0
20260508120350 20 338 0.0 1.6 0.00 0.00 0.00 32 1010.0
20260508115844 20 315 0.0 1.6 0.00 0.00 0.00 32 1010.0
20260508115315 20 315 0.0 0.0 0.00 0.00 0.00 32 1010.0
20260508114804 20 270 0.0 1.6 0.00 0.00 0.00 32 1010.0
20260508114311 20 68 0.0 1.6 0.00 0.00 0.00 32 1010.0
20260508113747 20 113 0.0 1.6 0.00 0.00 0.00 32 1010.0
20260508113233 20 45 0.0 0.0 0.00 0.00 0.00 32 1009.7
20260508113229 20 68 0.0 1.6 0.00 0.00 0.00 32 1010.0
20260508112444 21 68 0.0 1.6 0.00 0.00 0.00 32 1009.7
20260508112359 20 68 0.0 0.0 0.00 0.00 0.00 32 1010.0
20260508111338 21 45 0.0 1.6 0.00 0.00 0.00 32 1009.7
20260508110833 21 90 0.0 0.0 0.00 0.00 0.00 31 1009.7
20260508110005 21 68 0.0 0.0 0.00 0.00 0.00 31 1009.7
20260508105458 21 45 0.0 0.0 0.00 0.00 0.00 31 1009.7
20260508105006 21 113 0.0 0.0 0.00 0.00 0.00 32 1009.7
20260508104444 21 203 0.0 0.0 0.00 0.00 0.00 31 1009.7
20260508104434 21 23 0.0 0.0 0.00 0.00 0.00 32 1009.7
20260508103402 21 248 0.0 0.0 0.00 0.00 0.00 31 1009.7
20260508102851 21 270 0.0 0.0 0.00 0.00 0.00 35 1009.7
20260508102358 21 315 0.0 1.6 0.00 0.00 0.00 31 1009.7
20260508101843 21 270 0.0 1.6 0.00 0.00 0.00 31 1009.7
20260508101331 21 45 0.0 0.0 0.00 0.00 0.00 34 1009.7
20260508101110 21 23 0.0 0.0 0.00 0.00 0.00 32 1009.7
20260508100838 21 23 0.0 0.0 0.00 0.00 0.00 32 1009.7
20260508100335 21 23 0.0 0.0 0.00 0.00 0.00 31 1009.7
20260508100059 21 338 0.0 0.0 0.00 0.00 0.00 30 1009.3
20260508095320 21 315 0.0 0.0 0.00 0.00 0.00 30 1009.3
20260508094642 21 0 0.0 3.2 0.00 0.00 0.00 30 1009.3
20260508094124 21 23 0.0 3.2 0.00 0.00 0.00 30 1009.3
20260508093604 21 45 0.0 1.6 0.00 0.00 0.00 30 1009.3
20260508093050 22 45 0.0 3.2 0.00 0.00 0.00 30 1009.3
20260508092545 22 113 0.0 3.2 0.00 0.00 0.00 30 1009.3
20260508092044 22 135 0.0 3.2 0.00 0.00 0.00 27 1009.7
20260508091547 22 113 0.0 3.2 0.00 0.00 0.00 27 1009.3
20260508091039 22 135 0.0 3.2 0.00 0.00 0.00 27 1009.3
20260508090532 22 338 0.0 6.4 0.00 0.00 0.00 27 1009.7
20260508090017 22 23 1.6 6.4 0.00 0.00 0.00 25 1009.7
20260508085814 22 90 3.2 4.8 0.00 0.00 0.00 25 1009.7
20260508084953 22 45 1.6 4.8 0.00 0.00 0.00 25 1009.7
20260508084444 22 68 1.6 4.8 0.00 0.00 0.00 25 1009.7
20260508083943 22 68 1.6 4.8 0.00 0.00 0.00 25 1009.7
20260508083433 22 0 0.0 3.2 0.00 0.00 0.00 27 1009.7
20260508082905 22 90 0.0 3.2 0.00 0.00 0.00 27 1009.7
20260508082405 22 45 0.0 1.6 0.00 0.00 0.00 29 1009.7
20260508081859 23 23 0.0 1.6 0.00 0.00 0.00 29 1009.7
20260508081352 23 45 0.0 0.0 0.00 0.00 0.00 27 1009.7
20260508080815 23 45 0.0 0.0 0.00 0.00 0.00 25 1009.3
20260508080309 23 338 0.0 0.0 0.00 0.00 0.00 25 1009.3
20260508075801 23 0 0.0 0.0 0.00 0.00 0.00 25 1009.3
20260508075241 23 0 0.0 0.0 0.00 0.00 0.00 25 1009.0
20260508074711 23 0 0.0 0.0 0.00 0.00 0.00 24 1009.7
20260508074513 23 23 0.0 0.0 0.00 0.00 0.00 24 1009.3
20260508073646 23 23 0.0 0.0 0.00 0.00 0.00 24 1009.3
20260508073142 23 45 0.0 0.0 0.00 0.00 0.00 22 1009.3
20260508072631 23 270 0.0 1.6 0.00 0.00 0.00 22 1009.3
20260508072105 23 315 0.0 4.8 0.00 0.00 0.00 22 1009.7
20260508071538 23 180 1.6 6.4 0.00 0.00 0.00 22 1009.7
20260508071319 23 158 1.6 6.4 0.00 0.00 0.00 25 1009.3
20260508070525 23 338 0.0 0.0 0.00 0.00 0.00 25 1009.3
20260508070010 23 338 0.0 0.0 0.00 0.00 0.00 25 1009.3
20260508065736 24 338 0.0 0.0 0.00 0.00 0.00 25 1009.0
20260508064957 24 338 0.0 0.0 0.00 0.00 0.00 25 1009.0
20260508064449 24 0 0.0 0.0 0.00 0.00 0.00 25 1009.3
20260508063724 24 0 0.0 0.0 0.00 0.00 0.00 25 1009.3
20260508063219 24 0 0.0 0.0 0.00 0.00 0.00 25 1009.3
20260508062712 24 0 0.0 3.2 0.00 0.00 0.00 25 1009.0
20260508062201 25 0 0.0 3.2 0.00 0.00 0.00 24 1009.3
20260508061707 25 338 0.0 0.0 0.00 0.00 0.00 24 1009.0
20260508061153 25 338 0.0 0.0 0.00 0.00 0.00 24 1009.3
20260508060914 25 315 0.0 0.0 0.00 0.00 0.00 24 1009.0
20260508060123 25 315 0.0 0.0 0.00 0.00 0.00 22 1009.0
20260508055556 25 315 0.0 0.0 0.00 0.00 0.00 22 1009.0
20260508055004 25 248 0.0 0.0 0.00 0.00 0.00 22 1009.3
20260508054734 25 225 0.0 0.0 0.00 0.00 0.00 22 1009.3
20260508053913 26 225 0.0 0.0 0.00 0.00 0.00 22 1009.3
20260508053404 26 225 0.0 0.0 0.00 0.00 0.00 20 1009.3
20260508052834 26 180 0.0 0.0 0.00 0.00 0.00 22 1009.0
20260508052333 26 180 0.0 0.0 0.00 0.00 0.00 22 1009.0
20260508051812 26 203 0.0 0.0 0.00 0.00 0.00 22 1009.0
20260508051455 26 203 0.0 0.0 0.00 0.00 0.00 22 1009.0
20260508050645 26 203 0.0 0.0 0.00 0.00 0.00 22 1009.0
20260508050405 26 203 0.0 0.0 0.00 0.00 0.00 20 1009.0
20260508045641 27 203 0.0 0.0 0.00 0.00 0.00 20 1008.7
20260508045139 27 203 0.0 0.0 0.00 0.00 0.00 20 1008.7
20260508044638 27 203 0.0 0.0 0.00 0.00 0.00 20 1009.0
20260508044117 27 203 0.0 0.0 0.00 0.00 0.00 20 1008.7
20260508043639 27 203 0.0 0.0 0.00 0.00 0.00 19 1008.7
20260508043118 27 203 0.0 0.0 0.00 0.00 0.00 19 1008.7
20260508042612 28 203 0.0 0.0 0.00 0.00 0.00 19 1008.7
20260508041956 28 203 0.0 0.0 0.00 0.00 0.00 17 1008.7
20260508041437 28 203 0.0 0.0 0.00 0.00 0.00 17 1008.7
20260508040921 28 203 0.0 0.0 0.00 0.00 0.00 17 1008.3
20260508040415 28 203 0.0 0.0 0.00 0.00 0.00 19 1008.3
20260508040133 28 203 0.0 0.0 0.00 0.00 0.00 17 1008.3
20260508035336 29 203 0.0 0.0 0.00 0.00 0.00 15 1008.3
20260508034825 29 203 0.0 0.0 0.00 0.00 0.00 15 1008.0
20260508034327 29 180 0.0 0.0 0.00 0.00 0.00 17 1008.0
20260508033814 30 203 0.0 0.0 0.00 0.00 0.00 17 1008.0
20260508033248 30 203 0.0 0.0 0.00 0.00 0.00 15 1008.0
20260508033025 30 203 0.0 0.0 0.00 0.00 0.00 15 1008.0
20260508032228 30 203 0.0 0.0 0.00 0.00 0.00 15 1007.6
20260508031713 30 203 0.0 1.6 0.00 0.00 0.00 13 1007.6
20260508031219 30 225 0.0 1.6 0.00 0.00 0.00 15 1007.6
20260508030654 31 135 0.0 0.0 0.00 0.00 0.00 13 1007.6
20260508030152 31 270 0.0 0.0 0.00 0.00 0.00 13 1007.6
20260508025637 31 270 0.0 1.6 0.00 0.00 0.00 12 1007.3
20260508025351 31 270 0.0 3.2 0.00 0.00 0.00 12 1007.3
20260508024602 31 315 0.0 8.0 0.00 0.00 0.00 12 1007.3
20260508024107 31 248 3.2 8.0 0.00 0.00 0.00 12 1007.3
20260508023544 31 248 1.6 4.8 0.00 0.00 0.00 12 1007.3
20260508023037 32 270 0.0 3.2 0.00 0.00 0.00 12 1006.9
20260508022502 32 225 1.6 3.2 0.00 0.00 0.00 12 1007.3
20260508021926 32 203 1.6 4.8 0.00 0.00 0.00 11 1006.9
20260508021418 32 248 1.6 8.0 0.00 0.00 0.00 12 1006.9
20260508020851 32 270 1.6 9.7 0.00 0.00 0.00 11 1006.9
20260508020353 32 158 3.2 9.7 0.00 0.00 0.00 10 1006.9
20260508020105 32 225 3.2 8.0 0.00 0.00 0.00 11 1006.9
20260508015552 32 315 3.2 8.0 0.00 0.00 0.00 10 1006.5
20260508014814 33 270 1.6 11.3 0.00 0.00 0.00 10 1006.5
20260508014254 33 270 3.2 11.3 0.00 0.00 0.00 10 1006.5
20260508013752 33 225 1.6 8.0 0.00 0.00 0.00 10 1006.2
20260508013237 33 225 1.6 8.0 0.00 0.00 0.00 10 1006.5
20260508012736 33 225 1.6 8.0 0.00 0.00 0.00 10 1006.5
20260508012228 33 203 3.2 11.3 0.00 0.00 0.00 10 1006.2
20260508011702 33 225 6.4 12.9 0.00 0.00 0.00 11 1006.5
20260508011154 33 248 4.8 12.9 0.00 0.00 0.00 10 1006.5
20260508010659 34 135 3.2 11.3 0.00 0.00 0.00 10 1006.5
20260508010459 34 270 3.2 11.3 0.00 0.00 0.00 10 1006.5
20260508005646 34 248 3.2 11.3 0.00 0.00 0.00 11 1006.5
20260508005154 34 248 1.6 11.3 0.00 0.00 0.00 11 1006.5
20260508004507 35 270 0.0 6.4 0.00 0.00 0.00 10 1006.5
20260508004007 35 248 1.6 6.4 0.00 0.00 0.00 9 1006.5
20260508003424 35 270 1.6 6.4 0.00 0.00 0.00 11 1006.5
20260508002912 35 315 1.6 6.4 0.00 0.00 0.00 11 1006.5
20260508002632 35 180 0.0 4.8 0.00 0.00 0.00 10 1006.2
20260508001845 35 225 0.0 8.0 0.00 0.00 0.00 10 1006.5
20260508001345 35 225 1.6 8.0 0.00 0.00 0.00 10 1006.5
20260508000845 35 270 0.0 6.4 0.00 0.00 0.00 10 1006.2
20260508000343 35 338 1.6 8.0 0.00 0.00 0.00 10 1006.5
20260507235843 35 338 1.6 8.0 0.00 0.00 0.00 11 1006.5
20260507235615 35 180 1.6 8.0 0.00 0.00 0.00 10 1006.5
20260507234844 35 270 1.6 9.7 0.00 0.00 0.00 9 1006.5
20260507234344 35 158 1.6 8.0 0.00 0.00 0.00 10 1006.5
20260507234116 35 225 1.6 9.7 0.00 0.00 0.00 9 1006.5
20260507233617 34 180 1.6 9.7 0.00 0.00 0.00 10 1006.5
20260507232845 34 293 1.6 9.7 0.00 0.00 0.00 10 1006.5
20260507232615 34 270 1.6 11.3 0.00 0.00 0.00 11 1006.9
20260507232114 34 180 3.2 11.3 0.00 0.00 0.00 9 1006.9
20260507231343 34 158 1.6 8.0 0.00 0.00 0.00 9 1006.9
20260507230843 35 158 1.6 9.7 0.00 0.00 0.00 10 1006.5
20260507230343 35 248 1.6 9.7 0.00 0.00 0.00 10 1006.9
20260507225844 35 180 1.6 9.7 0.00 0.00 0.00 10 1006.9
20260507225614 35 203 1.6 11.3 0.00 0.00 0.00 9 1006.9
20260507224844 35 180 3.2 11.3 0.00 0.00 0.00 10 1006.9
20260507224344 35 203 3.2 11.3 0.00 0.00 0.00 9 1006.9
20260507224114 35 225 1.6 9.7 0.00 0.00 0.00 10 1007.3
20260507223343 35 203 1.6 6.4 0.00 0.00 0.00 11 1007.3
20260507222842 35 45 0.0 6.4 0.00 0.00 0.00 12 1007.3